Regional Weather Roundup
Issued by NWS

Home | Current Version | Previous Version | Text Only | Print | Product List | Glossary Off
Versions: 1 2 3 4 5 6 7 8 9 10 11 12 13 14 15 16 17 18 19 20 21 22 23 24 25 26 27 28 29 30 31 32 33 34 35 36 37 38 39 40 41 42 43 44 45 46 47 48 49 50

000
ASUS45 KBOU 262307
RWRCO

WEATHER ROUNDUP FOR COLORADO
NATIONAL WEATHER SERVICE DENVER/BOULDER CO
500 PM MDT WED APR 26 2017

NOTE: "FAIR" INDICATES FEW OR NO CLOUDS BELOW 12000 FEET WITH NO
SIGNIFICANT WEATHER AND/OR OBSTRUCTIONS TO VISIBILITY.

COZ001>005-013-030-031-270000-
...NORTHWEST COLORADO...

CITY           SKY/WX    TMP DP  RH WIND       PRES   REMARKS
CRAIG          CLOUDY    54  28  36 W22G29    29.75F
HAYDEN         PTSUNNY   43  32  65 S8        29.76F
MEEKER         CLOUDY    49  31  49 S8        29.77F
MOUNT WERNER   NOT AVBL
STEAMBOAT SPGS FAIR      39  36  87 E12       29.77F
WALDEN           N/A     41  23  48 W12G20    29.77F
$$

COZ006>008-011-270000-
...WEST CENTRAL VALLEYS...

CITY           SKY/WX    TMP DP  RH WIND       PRES   REMARKS
GRAND JUNCTION PTSUNNY   64  21  19 W12       29.75F
MONTROSE       CLOUDY    57  24  28 VRB5      29.79F
EAGLE          PTSUNNY   45  28  53 SW17      29.81F
RIFLE          CLOUDY    52  33  48 E12G17    29.79F
DELTA          FAIR      63  24  22 SW7       29.77F
NUCLA          NOT AVBL
$$

COZ017>023-064>068-270000-
...SOUTHWEST COLORADO...

CITY           SKY/WX    TMP DP  RH WIND       PRES   REMARKS
DURANGO        CLOUDY    53  17  24 W16G22    29.82F
CORTEZ         PTSUNNY   60  15  17 W8G21     29.81F
PAGOSA SPRINGS FAIR      51  14  23 SW18G24   29.81F
TELLURIDE      CLOUDY    42  19  39 W8        29.90F
WOLF CREEK PAS FLURRIES  27  21  80 SW18      29.96F WCI  13
$$

COZ009-010-012-014-032>034-037-058>063-270000-
...CENTRAL COLORADO...

CITY           SKY/WX    TMP DP  RH WIND       PRES   REMARKS
ASPEN          PTSUNNY   42  28  57 CALM      29.81F
BUENA VISTA    FAIR      48  16  28 W24G35    29.77S
COPPER MTN     SNOW      27  21  80 NW8       29.87R VSB 1/4 WCI  18
BERTHOUD PASS  CLOUDY    19   9  63 NW24      29.83S WCI   2
COTTONWOOD PAS PTSUNNY   43  18  36 NW8       29.81F
GUNNISON       FAIR      45  27  49 W15G24    29.84R
KREMMLING      FAIR      43  37  81 CALM      29.80F
LEADVILLE      LGT SNOW  33  25  72 N7G23     29.82F WCI  27
MONARCH PASS   CLOUDY    23  21  93 W31G38    29.98R WCI   5
SALIDA         FAIR      50  22  33 W23G32    29.85S
SUNLIGHT       LGT SNOW  28  27  93 SW12G20   29.91F WCI  18
WILKERSON PASS CLOUDY    32  10  40 W5        29.86F WCI  27
$$

COZ069>075-270000-
...SAN LUIS VALLEY/SANGRE DE CRISTO MOUNTAINS...

CITY           SKY/WX    TMP DP  RH WIND       PRES   REMARKS
ALAMOSA        CLOUDY    52  23  32 S10       29.76F
LA VETA PASS   PTSUNNY   37  28  70 MISG      29.94F
SAGUACHE       FAIR      52  16  24 NW26G35   29.78S
$$

COZ035-036-038>040-270000-
...NORTHERN COLORADO FRONT RANGE...

CITY           SKY/WX    TMP DP  RH WIND       PRES   REMARKS
DENVER INTL AP PTSUNNY   60  21  22 CALM      29.66F
DMNS CITY PARK   N/A     57  20  23 S7G15     29.66S
AURORA         PTSUNNY   56  24  28 S16       29.68F
FRONT RANGE AP NOT AVBL
ERIE MUNI ARPT FAIR      59  17  19 W5        29.66F
BOULDER MUN AP PTSUNNY   55  27  33 W24G31    29.67R
CENTENNIAL     PTSUNNY   54  22  28 VRB3      29.69F
BROOMFIELD     PTSUNNY   57  21  24 W26       29.68F
FORT COLLINS   FAIR      57  25  29 CALM      29.67F
LONGMONT       PTSUNNY   63  23  21 N6        29.68S
$$

COZ041-046-047-076>085-087-088-270000-
...PIKES PEAK/PALMER DIVIDE AND SOUTHERN FOOTHILLS...

CITY           SKY/WX    TMP DP  RH WIND       PRES   REMARKS
COLO. SPRINGS  PTSUNNY   51  29  42 S6        29.73F
A. F. ACADEMY  CLOUDY    47  30  51 CALM      29.73F
SCHRIEVER AFB  FAIR      50  28  42 SW3       29.73F
ELLICOTT       FAIR     N/A N/A N/A W6        29.72F
FALCON         FAIR      47  28  47 SW8       29.75F
FORT CARSON    FAIR      55  31  40 W9        29.72S
LIMON          CLOUDY    53  28  38 W13       29.71S
MONUMENT HILL  FAIR      45  28  53 N8        29.75S
TRINIDAD       FAIR      54  34  46 S8        29.72F
$$

COZ042>045-048>051-090-091-270000-
...NORTHEAST COLORADO...

CITY           SKY/WX    TMP DP  RH WIND       PRES   REMARKS
GREELEY ARPT   FAIR      57  27  31 SW9G16    29.68S
AKRON          FAIR      54  31  41 NW12      29.69F
BURLINGTON     NOT AVBL
WRAY           NOT AVBL
STERLING       FAIR      54  34  47 W7        29.67F
HOLYOKE        FAIR      59  32  36 NE5       29.68F
FORT MORGAN    LGT RAIN  49  34  56 N21G32    29.69F
$$

COZ086-089-092>099-270000-
...SOUTHEAST COLORADO...

CITY           SKY/WX    TMP DP  RH WIND       PRES   REMARKS
PUEBLO         FAIR      59  31  34 SE10      29.68F
LA JUNTA       FAIR      59  32  36 SE6       29.71F
LAMAR          FAIR      63  27  25 N10       29.68F
SPRINGFIELD      N/A     58  29  33 NE8       29.71F
$$



USA.gov is the U.S. government's official web portal to all federal, state and local government web resources and services.